Location: Sungai Dangang
(2.7500°N, 113.8333°E)
Time: 18:25:01
(UTC+00:00)

Cosmos 1980 - Pass Details

Date: 16 May 2021
Orbit: 838 x 848 km, 71.0° (Epoch: 19 June)

Event Time Altitude Azimuth Distance (km) Brightness Sun altitude
Exits shadow 21:37:01 - 216° (SW) 2,827 5.9 -9.5°
Reaches altitude 10° 21:38:06 10° 220° (SW) 2,450 5.6 -9.2°
Maximum altitude 21:43:13 37° 286° (WNW) 1,283 4.3 -8.0°
Drops below altitude 10° 21:48:22 10° 352° (N) 2,449 6.3 -6.8°
Sets 21:50:59 0° 0° (N) 3,383 7.1 -6.2°
